This is the latest recevied weather packets stored in our database for station/object KN6CRX-10. If no packets are shown the sender has not sent any weather packets the latest 10 day(s).
| Time | Temp. | Humidity | Pressure | Rain* | Wind** | Luminosity | Snow |
|---|---|---|---|---|---|---|---|
| 1788396361 | 22.78° C | 18% | 1014.2 hPa | 0 mm | - | 46 W/m² | - |
| 1788396057 | 22.78° C | 19% | 1014.5 hPa | 0 mm | - | 45 W/m² | - |
| 1788395752 | 22.78° C | 19% | 1014.2 hPa | 0 mm | - | 46 W/m² | - |
| 1788395448 | 23.33° C | 19% | 1014.2 hPa | 0 mm | - | 54 W/m² | - |
| 1788395143 | 23.33° C | 19% | 1014.2 hPa | 0 mm | - | 62 W/m² | - |
| 1788394842 | 23.33° C | 17% | 1014.5 hPa | 0 mm | - | 68 W/m² | - |
| 1788394537 | 23.33° C | 17% | 1014.4 hPa | 0 mm | - | 62 W/m² | - |
| 1788394237 | 23.89° C | 16% | 1014.4 hPa | 0 mm | - | 67 W/m² | - |
| 1788393932 | 23.89° C | 15% | 1014.2 hPa | 0 mm | - | 74 W/m² | - |
| 1788393626 | 23.89° C | 17% | 1014.4 hPa | 0 mm | - | 65 W/m² | - |
| 1788393326 | 23.89° C | 19% | 1014.5 hPa | 0 mm | - | 113 W/m² | - |
| 1788393021 | 23.89° C | 18% | 1014.1 hPa | 0 mm | - | 117 W/m² | - |
| 1788392721 | 23.89° C | 18% | 1014.4 hPa | 0 mm | - | 105 W/m² | - |
| 1788392419 | 24.44° C | 18% | 1014.4 hPa | 0 mm | - | 133 W/m² | - |
| 1788392114 | 23.89° C | 19% | 1014.1 hPa | 0 mm | - | 168 W/m² | - |
| 1788391809 | 23.89° C | 18% | 1014.2 hPa | 0 mm | - | 163 W/m² | - |
| 1788391508 | 23.89° C | 19% | 1014.6 hPa | 0 mm | - | 140 W/m² | - |
| 1788391203 | 23.89° C | 24% | 1014.5 hPa | 0 mm | - | 148 W/m² | - |
| 1788390897 | 23.89° C | 23% | 1014.5 hPa | 0 mm | - | 139 W/m² | - |
| 1788390592 | 24.44° C | 22% | 1014.4 hPa | 0 mm | - | 110 W/m² | - |
| 1788390292 | 24.44° C | 22% | 1014.1 hPa | 0 mm | - | 124 W/m² | - |
| 1788389991 | 25° C | 23% | 1014.4 hPa | 0 mm | - | 135 W/m² | - |
| 1788389686 | 25.56° C | 18% | 1014.1 hPa | 0 mm | - | 150 W/m² | - |
| 1788389385 | 25.56° C | 21% | 1014.1 hPa | 0 mm | - | 169 W/m² | - |
| 1788389084 | 25.56° C | 21% | 1014.2 hPa | 0 mm | - | 177 W/m² | - |
* Rain latest hour (hover to see other rain measurements)
** Current wind speed in m/s (hover to see current wind gust speed)